Helicity
157 204 267 403 455 593 671 744 500 551 709 657 758 742 763 359 337 484 457 442 203 277 155 194 175 141 143 264 264 317 326 312 348 307 243 275 288 326 295 385 428 365 331 278
261 446 416 384 397 541 753 767 737 691 627 776 792 599 564 560 558 344 444 392 350 282 334 309 139 249 266 407 429 392 347 412 476 480 349 244 288 291 357 373 341 296 330 231
450 547 576 342 320 587 725 665 470 465 433 517 600 564 352 529 193 252 302 364 406 471 445 364 336 360 327 349 378 351 366 529 471 409 498 395 303 347 293 214 343 325 285 217
129 129 108 122 156 187 337 671 764 577 498 391 289 213 215 270 245 256 360 442 381 411 417 418 313 358 324 246 209 274 310 422 357 320 298 274 230 179 207 228 216 237 170 143
50 46 61 101 97 99 130 145 254 197 136 196 230 203 179 122 151 161 369 330 322 363 400 376 381 210 287 256 194 252 252 314 274 263 209 164 132 103 107 103 116 131 148 123
85 95 118 150 157 134 122 184 128 175 164 238 233 263 281 235 318 369 367 481 420 336 311 254 310 221 234 279 245 280 230 239 271 220 152 166 224 152 81 88 79 99 136 104
145 169 187 209 248 222 180 234 180 175 117 212 117 117 222 289 165 235 201 285 339 249 225 285 365 348 340 323 316 237 256 215 259 241 264 259 162 127 97 53 39 61 84 79
130 157 180 233 257 216 203 244 268 263 240 163 144 -13 -52 128 177 282 226 216 140 134 261 309 329 335 320 271 197 193 217 298 280 239 182 154 96 122 152 109 122 85 100 108
63 107 152 198 228 186 164 241 225 243 279 241 145 150 94 188 175 175 209 310 287 355 403 397 400 408 351 300 356 254 213 157 227 247 263 190 134 103 86 85 137 112 103 115
31 42 59 101 149 122 75 207 197 185 303 300 240 227 149 186 254 223 206 197 193 196 185 225 194 190 121 157 198 161 147 175 148 163 256 253 182 115 38 193 160 151 146 116
25 36 70 94 111 77 9 86 90 93 179 254 221 273 183 111 160 208 158 248 219 226 180 81 66 47 114 117 133 158 177 208 225 239 253 205 137 76 103 58 36 47 51 77
18 36 69 95 88 94 55 60 118 85 75 74 81 136 149 220 226 118 125 71 139 105 155 134 155 170 185 180 214 182 224 207 201 200 240 184 127 92 43 2 12 -5 26 48
42 67 88 108 145 172 108 149 139 90 91 90 71 80 95 119 164 217 154 130 85 108 108 158 174 203 217 215 191 140 133 103 133 148 123 136 147 156 139 91 35 22 10 62
67 97 90 109 149 174 128 120 161 98 92 103 107 52 75 46 70 115 172 183 195 185 161 145 160 176 161 149 147 149 155 200 211 199 189 170 109 107 116 152 174 160 136 74
58 70 85 95 100 105 88 100 103 95 88 71 109 87 66 56 60 78 111 146 177 191 208 231 191 191 178 151 138 134 185 148 155 163 130 130 105 99 104 114 115 98 75 47
18 21 29 35 43 63 61 69 68 64 63 69 73 51 41 41 73 90 105 92 107 140 173 156 153 204 208 171 189 148 118 93 70 89 60 45 52 56 55 65 45 42 53 61
14 17 18 24 31 52 46 39 20 23 34 54 50 49 33 41 65 73 68 65 73 94 100 133 152 176 175 184 178 139 124 101 74 53 58 99 131 83 95 124 136 131 102 43
22 30 25 26 41 40 37 11 31 48 36 42 33 43 51 59 73 80 72 74 75 78 103 121 131 133 191 211 276 183 141 128 100 77 49 47 29 28 23 26 9 -36 -39 78
64 87 76 72 41 40 45 107 89 61 39 23 16 50 52 55 67 60 67 63 53 66 102 123 124 179 211 236 118 98 63 68 33 82 47 -21 18 -21 -31 -43 -22 -34 -50 26
78 90 73 29 36 80 59 46 30 33 42 37 24 37 26 25 12 36 55 42 31 30 32 65 85 130 218 121 69 34 -13 -39 -22 -4 34 -12 -43 153 147 20 -29 51 75 -30
110 58 53 52 27 29 24 20 7 14 -1 1 1 14 25 6 18 2 -16 -16 -44 9 1 17 51 70 60 109 90 117 59 56 59 22 56 75 164 101 75 38 44 -9 110 148
48 54 55 43 16 24 10 9 8 4 15 18 3 4 -30 15 35 16 -32 -27 -35 3 -39 -16 45 56 41 9 8 21 32 40 75 23 40 53 161 135 63 40 98 140 160 182
83 75 55 33 27 25 21 20 19 14 10 4 13 14 5 7 -4 -2 -11 -10 -16 -3 -9 44 23 7 12 51 34 1 29 88 101 75 54 57 78 125 142 148 129 135 160 170
89 83 55 45 37 35 19 28 24 26 29 40 43 7 6 3 -4 -4 5 4 -3 19 11 6 34 -5 5 9 13 16 27 42 44 47 62 85 129 161 159 124 93 117 131 114
89 71 63 42 29 28 17 21 29 38 30 30 13 14 5 12 3 -3 -2 5 -13 -10 -18 -17 -14 8 3 1 4 10 20 37 41 39 48 73 96 101 100 90 98 106 108 102
33 60 41 35 24 16 23 16 15 20 18 10 4 23 14 -0 -6 -16 -33 -12 -23 -7 -0 21 29 22 14 12 7 15 17 16 16 27 41 61 82 97 110 117 117 110 79 85
20 20 15 -0 34 53 24 17 10 17 39 7 5 11 -3 3 -3 -6 2 4 12 3 63 64 40 25 16 39 33 29 29 27 27 29 43 67 86 97 104 113 101 81 68 75
Wind_Speed
53 60 60 60 60 62 55 61 76 52 51 77 78 89 81 74 74 58 59 62 66 60 61 61 63 65 56 36 39 51 46 52 63 54 38 40 42 50 50 65 68 64 69 66
33 37 37 51 51 50 54 60 58 51 55 82 70 63 67 58 59 61 57 58 51 48 56 59 56 54 42 39 40 48 43 57 67 65 47 46 52 52 52 55 61 74 75 75
37 43 41 44 44 34 46 49 52 54 56 57 56 59 70 66 44 55 46 54 52 56 61 53 52 43 40 39 39 37 41 53 62 68 55 45 52 57 55 54 69 73 75 82
22 26 31 32 33 28 33 42 44 46 70 66 57 57 64 69 68 55 56 59 59 59 62 57 43 37 37 35 37 41 42 57 54 55 54 54 60 67 65 68 70 76 84 79
18 20 19 23 26 24 37 42 44 36 42 46 54 56 65 69 64 55 59 59 54 51 52 53 49 36 43 45 39 44 41 59 57 71 65 68 82 84 80 77 77 84 86 98
9 13 19 20 28 27 40 38 28 35 42 48 59 60 59 60 55 59 53 57 52 50 42 30 32 29 31 36 40 44 44 50 59 75 60 62 78 71 72 77 74 74 83 81
5 4 9 15 20 23 29 33 37 36 57 54 56 53 48 50 46 38 31 36 44 34 27 27 31 34 37 42 42 39 51 50 50 59 55 77 65 62 63 72 74 73 75 75
11 11 10 8 14 19 18 23 32 42 51 50 53 47 49 41 38 41 35 37 30 24 28 43 53 57 58 53 49 44 38 44 60 68 68 75 83 71 61 65 80 68 62 58
16 12 11 10 17 16 13 25 26 27 38 50 34 36 33 44 45 41 40 33 33 33 38 45 62 67 64 62 58 48 49 49 59 62 72 83 74 55 53 60 81 56 56 60
26 22 17 16 19 18 14 20 26 20 25 27 25 34 31 27 29 34 29 30 32 35 39 48 52 59 47 60 57 49 46 49 62 70 74 76 67 61 62 69 66 55 59 59
25 24 24 22 21 19 16 19 25 16 19 19 18 22 18 20 21 31 25 32 40 43 49 49 50 51 50 55 51 50 55 60 68 69 76 86 46 54 58 51 49 52 55 60
19 17 16 21 23 24 15 13 21 19 16 21 23 22 22 20 24 27 25 32 29 36 42 46 45 51 52 58 73 59 74 65 69 63 67 56 53 54 45 44 50 50 55 57
12 8 8 11 15 17 13 13 21 19 21 25 27 32 31 27 25 25 32 32 32 35 34 43 48 57 54 65 70 71 67 66 71 68 68 72 70 66 59 55 48 50 52 56
7 8 9 9 13 18 16 17 23 22 26 28 32 30 37 34 33 32 32 33 37 36 39 46 49 56 52 66 68 74 66 66 65 73 73 64 72 68 60 61 59 59 63 67
5 7 9 11 15 19 19 20 24 25 26 30 36 40 39 34 32 37 38 39 41 44 49 51 56 55 59 64 71 77 62 71 76 84 70 67 74 68 66 71 70 69 72 68
4 5 8 11 15 21 21 22 27 29 28 29 35 38 35 25 24 27 31 34 39 40 45 53 53 54 57 69 79 75 68 70 74 88 85 83 84 83 80 80 78 75 71 63
5 6 9 12 17 23 23 23 23 26 28 30 36 36 33 24 17 25 31 31 36 37 44 52 56 54 50 65 79 68 62 64 68 72 74 77 69 70 69 72 74 71 70 63
19 5 15 14 17 22 26 27 25 27 30 31 33 34 26 20 24 26 28 28 33 36 36 40 47 46 41 61 58 52 44 39 44 48 52 70 75 76 76 75 79 82 83 70
16 4 9 21 27 28 29 22 28 31 29 29 29 30 27 24 22 22 24 24 32 33 37 39 34 37 33 33 40 25 13 10 23 36 45 58 58 64 71 72 71 65 63 76
15 8 22 26 26 22 22 32 31 29 31 30 32 34 27 17 15 21 21 28 33 35 33 28 35 42 32 35 43 48 49 47 45 46 45 42 47 52 52 61 65 53 51 27
14 20 25 22 18 24 26 27 27 23 29 25 27 12 19 31 37 40 42 38 39 38 33 34 37 32 24 22 30 34 41 52 61 57 50 33 35 42 42 45 47 28 15 15
17 15 17 18 24 26 27 24 25 26 31 27 35 37 45 39 36 42 43 41 40 39 35 34 33 29 26 30 32 33 29 30 46 50 54 43 36 37 40 25 23 19 19 17
19 22 22 25 27 31 31 30 31 35 36 35 32 36 37 33 36 37 38 39 39 31 37 35 32 28 32 34 35 31 26 24 25 30 33 30 25 22 19 17 17 19 20 21
24 28 33 31 29 35 34 36 34 34 28 23 23 32 33 33 33 35 35 37 35 36 36 34 32 34 35 31 29 29 27 28 29 31 31 27 23 20 19 19 17 18 20 22
32 33 34 38 35 35 35 34 34 30 25 28 31 36 36 31 33 33 34 32 34 36 35 35 33 37 34 33 33 34 35 36 35 34 31 27 23 20 20 20 18 18 19 21
36 39 36 38 38 40 40 40 39 34 32 32 32 35 34 34 32 30 32 32 34 33 34 36 37 38 36 35 35 37 38 39 39 36 31 27 24 20 19 18 18 17 17 19
42 44 45 44 41 41 39 36 37 30 29 37 36 33 34 32 30 31 29 35 33 34 35 39 40 37 34 32 34 36 37 39 38 35 30 25 22 20 19 19 20 19 18 19
Wind_Direction
221 217 211 202 194 193 208 225 230 231 234 227 239 243 245 253 254 258 259 267 250 259 259 266 261 270 280 275 269 275 285 288 281 289 305 303 300 289 283 282 287 287 288 289
193 182 187 193 178 204 212 223 234 241 233 225 235 251 243 252 259 252 254 259 261 265 265 267 266 269 279 281 279 276 281 282 282 285 291 298 292 293 294 296 293 283 286 286
180 192 189 193 205 199 210 221 227 230 229 241 242 237 240 249 259 252 259 263 267 268 267 273 274 268 276 280 277 283 284 282 279 278 287 295 287 294 296 294 289 290 287 293
169 170 169 182 200 207 227 233 235 232 234 240 242 240 250 251 254 263 265 265 263 265 267 269 272 268 269 272 275 280 281 276 282 286 292 293 291 288 291 291 291 289 292 292
180 184 178 183 209 221 233 231 231 230 239 231 239 244 245 247 250 257 260 263 264 266 268 271 269 264 268 270 271 275 282 279 283 283 287 288 285 285 289 290 290 289 291 290
180 199 206 212 219 233 238 246 245 245 244 243 247 247 250 251 253 262 259 265 265 265 274 282 284 288 278 283 274 276 279 279 284 283 288 288 285 285 289 292 293 294 291 294
29 18 240 240 254 259 249 256 250 250 242 244 247 251 257 252 253 265 271 268 267 271 283 288 293 290 288 284 286 283 280 278 283 284 291 281 289 298 297 296 295 296 296 299
24 16 22 348 326 313 287 300 271 257 249 253 253 256 255 256 263 262 268 280 269 268 281 276 277 278 280 280 278 277 280 281 282 281 281 290 291 297 300 300 296 306 306 311
22 8 359 345 334 347 332 315 306 293 269 264 275 258 244 253 257 262 266 282 272 270 274 276 272 273 276 276 279 270 271 274 276 285 285 284 295 305 308 311 294 313 313 314
44 35 23 14 360 357 351 325 338 310 284 298 286 265 248 261 263 257 249 265 267 280 274 271 272 273 277 275 275 277 271 272 273 279 285 290 297 303 305 291 295 313 315 315
41 36 40 34 18 3 357 338 350 325 298 303 296 315 267 257 252 250 252 267 274 272 271 269 273 276 275 278 277 277 275 279 278 280 282 286 303 300 292 306 311 310 315 316
41 32 29 25 11 354 349 346 340 346 310 283 281 285 287 289 286 261 262 278 275 275 273 272 277 277 281 278 276 280 277 279 283 281 282 291 295 298 307 311 308 310 311 310
15 333 321 335 334 322 323 312 306 308 297 287 279 270 280 290 298 303 276 282 285 280 285 283 282 280 287 279 279 282 284 286 283 286 283 286 288 295 303 306 306 308 309 310
328 322 321 316 319 328 325 297 295 284 284 283 282 284 279 285 288 289 291 288 292 293 289 284 285 284 290 284 285 284 285 290 289 286 287 293 289 292 294 299 303 306 307 304
337 302 296 304 308 317 321 320 309 305 291 288 280 285 286 289 288 282 284 286 289 289 286 286 285 287 290 290 289 284 287 285 282 281 287 290 288 292 295 296 298 300 303 304
2 323 313 312 315 313 312 313 310 307 313 305 291 298 298 301 298 293 290 290 291 292 291 290 293 292 293 291 287 288 287 285 284 284 286 284 286 287 289 290 293 295 296 298
34 314 298 303 305 310 314 310 316 321 319 311 300 302 300 297 302 294 294 297 298 299 297 293 293 295 299 293 290 295 292 291 290 290 292 287 286 288 292 291 289 289 288 294
96 6 278 295 316 307 303 305 322 317 315 308 300 299 309 316 307 304 305 308 310 308 305 310 307 310 302 297 297 300 297 295 295 290 288 284 282 283 284 282 274 260 261 285
97 8 352 283 286 305 314 343 320 314 312 315 315 306 309 313 320 326 325 326 317 319 313 314 322 314 312 314 316 314 304 235 214 214 216 229 273 277 270 256 251 252 256 267
105 82 275 287 301 32 355 310 299 303 302 307 308 296 307 332 335 327 331 316 314 321 324 340 325 321 220 229 226 224 220 217 209 219 207 216 243 247 245 240 231 220 223 259
260 279 285 321 35 319 310 301 300 319 315 331 323 355 272 237 252 252 244 257 241 288 262 215 245 239 206 223 216 217 215 216 212 215 215 194 211 230 224 222 233 283 29 65
282 317 332 341 309 304 294 308 305 298 293 265 229 217 168 239 265 242 228 236 230 224 217 220 233 231 214 305 314 314 297 194 180 198 219 215 203 203 195 161 85 60 41 34
289 296 299 298 286 274 271 271 265 252 236 240 244 226 219 228 231 232 231 227 225 282 222 225 237 290 312 320 319 308 292 294 284 270 270 296 326 7 42 21 14 35 34 40
280 272 266 265 269 257 259 249 241 245 264 296 290 244 243 236 239 229 225 231 243 245 240 244 333 338 322 305 300 307 298 305 313 319 326 340 354 358 7 21 29 35 43 51
254 250 252 249 253 246 244 253 249 267 298 297 275 244 240 258 255 253 243 249 253 246 263 294 323 341 328 325 323 330 333 338 338 336 342 349 356 0 2 6 13 31 36 41
237 235 243 243 243 240 246 246 248 271 269 260 253 242 247 256 261 270 273 288 292 296 317 332 334 335 332 330 330 342 344 344 342 345 349 353 354 2 5 5 359 2 19 32
218 223 235 238 242 246 255 274 267 286 286 263 256 263 268 272 293 302 308 306 319 346 353 340 332 336 340 347 347 345 346 348 356 360 4 3 2 9 3 353 340 342 0 24